Regional Weather Roundup
Issued by NWS

Home | Current Version | Previous Version | Text Only | Print | Product List | Glossary Off
Versions: 1 2 3 4 5 6 7 8 9 10 11 12 13 14 15 16 17 18 19 20 21 22 23 24 25 26 27 28 29 30 31 32 33 34 35 36 37 38 39 40 41 42 43 44 45 46 47 48 49 50

000
ASUS43 KDMX 212007
RWRIA

WEATHER ROUNDUP FOR IOWA
NATIONAL WEATHER SERVICE DES MOINES IA
200 PM CST FRI NOV 21 2014

NOTE: "FAIR" INDICATES FEW OR NO CLOUDS BELOW 12,000 FEET WITH NO
SIGNIFICANT WEATHER AND/OR OBSTRUCTIONS TO VISIBILITY.

* - THESE STATIONS ARE NOT NWS STATIONS...THUS NOT UNDER NWS
QUALITY CONTROL.  THEY ALSO DO NOT REPORT WEATHER SUCH
AS PRECIPITATION OR FOG.

IAZ001>003-012>014-020>022-031>034-043>046-212100-
   NORTHWEST IOWA

CITY           SKY/WX    TMP DP  RH WIND       PRES   REMARKS
CARROLL *      SUNNY     37  25  60 S15       30.08F WCI  28
CHEROKEE *     PTSUNNY   34  27  75 S17G23    30.04F WCI  23
DENISON *      SUNNY     36  25  64 S8G15     30.05F WCI  29
LE MARS *      SUNNY     36  25  64 S17       30.02F WCI  25
ORANGE CITY *  SUNNY     34  25  69 S16G24    30.00F WCI  23
SHELDON *      SUNNY     34  25  69 S28G33    29.98F WCI  20
SIOUX CITY     CLOUDY    38  25  59 S16       30.04F WCI  29
SPENCER        MOSUNNY   32  24  72 S17       30.04F WCI  21
STORM LAKE *   SUNNY     32  25  74 S18       30.05F WCI  20
$$

IAZ055>058-069>071-079>083-090>094-212100-
   SOUTHWEST IOWA

CITY           SKY/WX    TMP DP  RH WIND       PRES   REMARKS
ATLANTIC *     SUNNY     36  25  64 S14       30.10F WCI  27
AUDUBON *      SUNNY     37  21  52 S14       30.10F WCI  29
CLARINDA *     MOSUNNY   39  27  60 SE13      30.13F WCI  32
COUNCIL BLFS * SUNNY     37  27  65 S15       30.07F WCI  28
CRESTON *      CLOUDY    36  25  64 SE14G21   30.12F WCI  27
HARLAN  *      SUNNY     36  25  64 S14       30.12F WCI  27
LAMONI         CLOUDY    36  24  62 S13G20    30.15F WCI  27
RED OAK *      SUNNY     37  25  60 SE12      30.10F WCI  30
SHENANDOAH *   MOSUNNY   41  27  56 SE12      30.11F
$$

IAZ047>049-059>061-072>074-084-212100-
   CENTRAL IOWA

CITY           SKY/WX    TMP DP  RH WIND       PRES   REMARKS
AMES           PTSUNNY   32  19  58 S15       30.15F WCI  22
ANKENY *       SUNNY     37  21  52 S16       30.16F WCI  28
CHARITON *     CLOUDY    36  21  55 S14G21    30.17F WCI  27
DES MOINES     CLOUDY    38  21  50 S14       30.16F WCI  30
GRINNELL*      SUNNY     34  21  60 SE14      30.18F WCI  24
KNOXVILLE *    PTSUNNY   36  19  51 SE14      30.16F WCI  27
MARSHALLTOWN   SUNNY     31  19  61 S18       30.16F WCI  19
PELLA *        MOSUNNY   37  21  52 S14       30.19F WCI  29
PERRY *          N/A     37  25  60 S14       30.12F WCI  29
$$

IAZ004>006-015-016-023>025-035-036-212100-
   NORTH CENTRAL IOWA

CITY           SKY/WX    TMP DP  RH WIND       PRES   REMARKS
ALGONA *       SUNNY     32  23  69 S21       30.08F WCI  20
CLARION *      SUNNY     30  23  74 S20       30.11F WCI  18
ESTHERVILLE    PTSUNNY   29  22  75 S23       30.03F WCI  15
FORT DODGE *   MOSUNNY   30  19  64 S13G21    30.11F WCI  20
MASON CITY     MOSUNNY   26  19  74 S16       30.13F WCI  14
FOREST CITY *  SUNNY     30  23  74 S20G25    30.09F WCI  18
IOWA FALLS *     N/A     30  21  69 SE15      30.14F HAZE    WCI  19
$$

IAZ007>011-017>019-026>030-037>042-050>054-066-212100-
   NORTHEAST IOWA

CITY           SKY/WX    TMP DP  RH WIND       PRES   REMARKS
CEDAR RAPIDS   SUNNY     32  16  51 SE15      30.22F WCI  22
CHARLES CITY * SUNNY     28  18  64 S15G23    30.16F WCI  17
CLINTON *      SUNNY     34   7  32 S13G20    30.32F WCI  25
DECORAH *      SUNNY     27  10  50 S14G22    30.17F WCI  15
DUBUQUE        SUNNY     29  11  47 S15       30.25F WCI  18
MONTICELLO *   SUNNY     32  14  47 S14G20    30.25F WCI  22
OELWEIN *      SUNNY     28  14  54 S16       30.20F WCI  17
WATERLOO       SUNNY     30  19  63 S15       30.18F WCI  19
$$

IAZ064-065-067-068-078-212100-
   EAST CENTRAL IOWA

CITY           SKY/WX    TMP DP  RH WIND       PRES   REMARKS
DAVENPORT      SUNNY     35   4  27 S14       30.29F WCI  26
IOWA CITY      SUNNY     35  16  45 S13       30.27F WCI  26
MT. PLEASANT * SUNNY     36  14  41 SE13      30.25F WCI  27
MUSCATINE *    SUNNY     36   9  32 SE10      30.28F WCI  28
QUAD CITIES    SUNNY     35   6  29 SE15      30.30F WCI  25
$$

IAZ062-063-075>077-085>089-095>099-212100-
   SOUTHEAST IOWA

CITY           SKY/WX    TMP DP  RH WIND       PRES   REMARKS
BURLINGTON     SUNNY     37  11  34 SE10      30.27F WCI  30
FAIRFIELD *    SUNNY     34  16  47 SE16      30.23F WCI  23
FORT MADISON * SUNNY     37  14  38 SE10      30.27F WCI  30
KEOKUK *       SUNNY     37  16  41 SE12      30.26F WCI  30
OSKALOOSA *      N/A     34  19  55 SE16      30.21F WCI  23
CENTERVILLE *  PTSUNNY   36  21  55 SE12G18   30.20F WCI  27
OTTUMWA        SUNNY     34  19  54 S14       30.21F WCI  25
WASHINGTON *   SUNNY     36  16  44 SE16G22   30.24F WCI  26
$$

ABBREVIATIONS USED IN REMARKS
   TC - TEMPERATURES IN CELSIUS
  WCI - WIND CHILL INDEX
   HX - HEAT INDEX
  VSB - VISIBILITY
$$



USA.gov is the U.S. government's official web portal to all federal, state and local government web resources and services.